Time,TemperatureF,DewpointF,PressureIn,WindDirection,WindDirectionDegrees,WindSpeedMPH,WindSpeedGustMPH,Humidity,HourlyPrecipIn,Conditions,Clouds,dailyrainin,SoftwareType,DateUTC
2013-01-01 00:03:00,-3.2,-8.0,30.23,NW,315,3.4,5.7,79,0.00,,,0.00,CWS Microserver 1.4,2013-01-01 06:03:00,
2013-01-01 00:08:00,-3.6,-8.4,30.23,West,280,3.0,5.7,79,0.00,,,0.00,CWS Microserver 1.4,2013-01-01 06:08:00,
2013-01-01 00:13:00,-3.4,-8.0,30.23,WNW,284,4.2,5.9,80,0.00,,,0.00,CWS Microserver 1.4,2013-01-01 06:13:00,
2013-01-01 00:18:00,-3.2,-7.8,30.23,West,274,4.4,5.9,80,0.00,,,0.00,CWS Microserver 1.4,2013-01-01 06:18:00,
2013-01-01 00:23:00,-3.1,-7.8,30.23,West,276,4.7,5.6,79,0.00,,,0.00,CWS Microserver 1.4,2013-01-01 06:23:00,
2013-01-01 00:28:00,-3.1,-7.7,30.23,West,280,5.3,5.6,79,0.00,,,0.00,CWS Microserver 1.4,2013-01-01 06:28:00,
2013-01-01 00:33:00,-3.2,-7.9,30.24,West,269,6.7,7.0,79,0.00,,,0.00,CWS Microserver 1.4,2013-01-01 06:33:00,
2013-01-01 00:38:00,-3.1,-7.7,30.24,West,276,5.3,7.4,80,0.00,,,0.00,CWS Microserver 1.4,2013-01-01 06:38:00,
2013-01-01 00:43:00,-3.2,-8.2,30.24,NW,306,3.3,7.4,78,0.00,,,0.00,CWS Microserver 1.4,2013-01-01 06:43:00,
2013-01-01 00:48:00,-3.4,-8.4,30.24,West,276,5.3,7.0,78,0.00,,,0.00,CWS Microserver 1.4,2013-01-01 06:48:00,
2013-01-01 00:53:00,-3.6,-8.4,30.24,West,266,6.1,7.0,79,0.00,,,0.00,CWS Microserver 1.4,2013-01-01 06:53:00,
2013-01-01 00:58:00,-4.0,-8.7,30.24,West,278,4.4,6.3,79,0.00,,,0.00,CWS Microserver 1.4,2013-01-01 06:58:00,
2013-01-01 01:03:00,-3.8,-8.1,30.24,WNW,290,4.0,6.3,81,0.00,,,0.00,CWS Microserver 1.4,2013-01-01 07:03:00,
2013-01-01 01:08:00,-3.4,-7.7,30.24,WNW,284,1.7,5.8,81,0.00,,,0.00,CWS Microserver 1.4,2013-01-01 07:08:00,
2013-01-01 01:13:00,-3.4,-8.0,30.23,WNW,283,4.7,5.8,80,0.00,,,0.00,CWS Microserver 1.4,2013-01-01 07:13:00,
2013-01-01 01:18:00,-3.6,-8.0,30.23,WNW,282,5.3,5.8,80,0.00,,,0.00,CWS Microserver 1.4,2013-01-01 07:18:00,
2013-01-01 01:23:00,-4.1,-8.7,30.23,West,274,5.1,6.4,79,0.00,,,0.00,CWS Microserver 1.4,2013-01-01 07:23:00,
2013-01-01 01:28:00,-4.3,-8.7,30.23,WNW,282,2.9,6.4,80,0.00,,,0.00,CWS Microserver 1.4,2013-01-01 07:28:00,
2013-01-01 01:33:00,-4.7,-9.2,30.23,West,266,6.1,6.1,80,0.00,,,0.00,CWS Microserver 1.4,2013-01-01 07:33:00,
2013-01-01 01:38:00,-4.0,-7.9,30.23,WNW,288,3.3,6.1,82,0.00,,,0.00,CWS Microserver 1.4,2013-01-01 07:38:00,
2013-01-01 01:43:00,-3.2,-7.4,30.23,West,277,4.6,6.1,81,0.00,,,0.00,CWS Microserver 1.4,2013-01-01 07:43:00,
2013-01-01 01:48:00,-3.1,-7.3,30.23,WNW,295,2.8,5.3,81,0.00,,,0.00,CWS Microserver 1.4,2013-01-01 07:48:00,
2013-01-01 01:53:00,-3.1,-7.4,30.23,WNW,301,3.5,4.6,81,0.00,,,0.00,CWS Microserver 1.4,2013-01-01 07:53:00,
2013-01-01 01:58:00,-3.2,-7.7,30.23,WNW,288,2.3,4.8,80,0.00,,,0.00,CWS Microserver 1.4,2013-01-01 07:58:00,
2013-01-01 02:03:00,-3.8,-8.5,30.24,NW,319,2.7,5.7,79,0.00,,,0.00,CWS Microserver 1.4,2013-01-01 08:03:00,
2013-01-01 02:08:00,-3.6,-8.0,30.24,West,270,5.7,6.0,80,0.00,,,0.00,CWS Microserver 1.4,2013-01-01 08:08:00,
2013-01-01 02:13:00,-3.6,-8.0,30.23,West,276,4.2,6.0,80,0.00,,,0.00,CWS Microserver 1.4,2013-01-01 08:13:00,
2013-01-01 02:18:00,-3.4,-7.7,30.23,West,274,3.3,5.8,81,0.00,,,0.00,CWS Microserver 1.4,2013-01-01 08:18:00,
2013-01-01 02:23:00,-3.8,-8.7,30.24,West,278,3.2,5.1,79,0.00,,,0.00,CWS Microserver 1.4,2013-01-01 08:23:00,
2013-01-01 02:28:00,-3.8,-8.2,30.24,NW,304,3.6,4.9,80,0.00,,,0.00,CWS Microserver 1.4,2013-01-01 08:28:00,
2013-01-01 02:33:00,-4.0,-8.2,30.24,WNW,291,4.2,5.0,81,0.00,,,0.00,CWS Microserver 1.4,2013-01-01 08:33:00,
2013-01-01 02:38:00,-3.6,-7.7,30.24,NW,307,3.5,5.0,82,0.00,,,0.00,CWS Microserver 1.4,2013-01-01 08:38:00,
2013-01-01 02:43:00,-4.3,-8.8,30.24,WNW,291,4.8,5.2,80,0.00,,,0.00,CWS Microserver 1.4,2013-01-01 08:43:00,
2013-01-01 02:48:00,-4.7,-8.9,30.24,WNW,293,3.2,5.2,81,0.00,,,0.00,CWS Microserver 1.4,2013-01-01 08:48:00,
2013-01-01 02:53:00,-4.3,-8.4,30.24,WSW,244,4.3,5.5,82,0.00,,,0.00,CWS Microserver 1.4,2013-01-01 08:53:00,
2013-01-01 02:58:00,-3.6,-7.6,30.24,SSW,211,2.7,5.5,82,0.00,,,0.00,CWS Microserver 1.4,2013-01-01 08:58:00,
2013-01-01 03:03:00,-4.3,-8.8,30.23,WSW,237,4.0,5.2,80,0.00,,,0.00,CWS Microserver 1.4,2013-01-01 09:03:00,
2013-01-01 03:08:00,-4.7,-9.3,30.24,WSW,239,4.6,5.3,80,0.00,,,0.00,CWS Microserver 1.4,2013-01-01 09:08:00,
2013-01-01 03:13:00,-4.9,-9.2,30.24,WSW,251,4.6,6.5,81,0.00,,,0.00,CWS Microserver 1.4,2013-01-01 09:13:00,
2013-01-01 03:18:00,-5.0,-9.2,30.24,SW,224,3.3,8.0,81,0.00,,,0.00,CWS Microserver 1.4,2013-01-01 09:18:00,
2013-01-01 03:23:00,-5.0,-9.3,30.24,SSW,203,3.5,8.0,80,0.00,,,0.00,CWS Microserver 1.4,2013-01-01 09:23:00,
2013-01-01 03:28:00,-4.9,-9.4,30.24,WSW,247,4.8,8.7,80,0.00,,,0.00,CWS Microserver 1.4,2013-01-01 09:28:00,
2013-01-01 03:33:00,-4.3,-8.4,30.24,WSW,255,2.4,8.7,82,0.00,,,0.00,CWS Microserver 1.4,2013-01-01 09:33:00,
2013-01-01 03:38:00,-4.7,-9.2,30.24,WNW,303,2.9,6.6,80,0.00,,,0.00,CWS Microserver 1.4,2013-01-01 09:38:00,
2013-01-01 03:43:00,-4.5,-8.6,30.24,WSW,250,4.3,6.3,82,0.00,,,0.00,CWS Microserver 1.4,2013-01-01 09:43:00,
2013-01-01 03:48:00,-3.8,-8.0,30.24,WSW,249,3.8,6.2,81,0.00,,,0.00,CWS Microserver 1.4,2013-01-01 09:48:00,
2013-01-01 03:53:00,-4.0,-8.5,30.24,West,262,5.6,6.7,80,0.00,,,0.00,CWS Microserver 1.4,2013-01-01 09:53:00,
2013-01-01 03:58:00,-3.6,-7.9,30.23,West,268,4.9,6.7,81,0.00,,,0.00,CWS Microserver 1.4,2013-01-01 09:58:00,
2013-01-01 04:03:00,-2.9,-7.0,30.23,WSW,248,2.3,5.6,82,0.00,,,0.00,CWS Microserver 1.4,2013-01-01 10:03:00,
2013-01-01 04:08:00,-2.3,-6.8,30.23,WSW,252,4.2,5.4,80,0.00,,,0.00,CWS Microserver 1.4,2013-01-01 10:08:00,
2013-01-01 04:13:00,-2.0,-6.5,30.23,WSW,247,4.6,4.8,80,0.00,,,0.00,CWS Microserver 1.4,2013-01-01 10:13:00,
2013-01-01 04:18:00,-1.8,-6.2,30.23,SE,139,0.8,5.6,80,0.00,,,0.00,CWS Microserver 1.4,2013-01-01 10:18:00,
2013-01-01 04:23:00,-1.4,-5.9,30.23,SW,217,5.2,5.8,80,0.00,,,0.00,CWS Microserver 1.4,2013-01-01 10:23:00,
2013-01-01 04:28:00,-1.3,-5.7,30.23,WSW,244,5.9,6.5,80,0.00,,,0.00,CWS Microserver 1.4,2013-01-01 10:28:00,
2013-01-01 04:33:00,-0.9,-5.4,30.23,SW,229,4.4,6.9,80,0.00,,,0.00,CWS Microserver 1.4,2013-01-01 10:33:00,
2013-01-01 04:38:00,-0.7,-5.1,30.23,SW,235,2.6,6.9,81,0.00,,,0.00,CWS Microserver 1.4,2013-01-01 10:38:00,
2013-01-01 04:43:00,-0.4,-5.0,30.23,SW,235,2.5,5.3,80,0.00,,,0.00,CWS Microserver 1.4,2013-01-01 10:43:00,
2013-01-01 04:48:00,0.0,-4.6,30.23,SW,226,4.2,6.1,80,0.00,,,0.00,CWS Microserver 1.4,2013-01-01 10:48:00,
2013-01-01 04:53:00,0.0,-4.7,30.23,SW,217,4.0,6.1,79,0.00,,,0.00,CWS Microserver 1.4,2013-01-01 10:53:00,
2013-01-01 04:58:00,0.4,-4.2,30.23,WSW,245,3.6,5.5,80,0.00,,,0.00,CWS Microserver 1.4,2013-01-01 10:58:00,
2013-01-01 05:03:00,0.5,-4.2,30.22,SW,220,5.6,5.6,80,0.00,,,0.00,CWS Microserver 1.4,2013-01-01 11:03:00,
2013-01-01 05:08:00,0.7,-4.1,30.22,SW,224,4.8,5.7,79,0.00,,,0.00,CWS Microserver 1.4,2013-01-01 11:08:00,
2013-01-01 05:13:00,1.1,-3.8,30.22,SW,229,3.7,5.7,79,0.00,,,0.00,CWS Microserver 1.4,2013-01-01 11:13:00,
2013-01-01 05:18:00,1.3,-3.5,30.22,WSW,255,2.3,5.4,79,0.00,,,0.00,CWS Microserver 1.4,2013-01-01 11:18:00,
2013-01-01 05:23:00,1.4,-3.6,30.22,West,266,2.3,4.7,79,0.00,,,0.00,CWS Microserver 1.4,2013-01-01 11:23:00,
2013-01-01 05:28:00,1.8,-3.3,30.22,WNW,286,1.4,5.7,78,0.00,,,0.00,CWS Microserver 1.4,2013-01-01 11:28:00,
2013-01-01 05:33:00,2.0,-3.1,30.21,SSW,207,1.6,6.7,78,0.00,,,0.00,CWS Microserver 1.4,2013-01-01 11:33:00,
2013-01-01 05:38:00,2.3,-3.0,30.21,SW,235,3.6,6.7,78,0.00,,,0.00,CWS Microserver 1.4,2013-01-01 11:38:00,
2013-01-01 05:48:00,2.9,-2.6,30.21,SSW,202,2.8,5.1,77,0.00,,,0.00,CWS Microserver 1.4,2013-01-01 11:48:00,
2013-01-01 05:53:00,3.1,-2.4,30.21,SW,225,1.5,5.0,77,0.00,,,0.00,CWS Microserver 1.4,2013-01-01 11:53:00,
2013-01-01 05:58:00,3.2,-2.5,30.21,SW,223,4.6,5.7,76,0.00,,,0.00,CWS Microserver 1.4,2013-01-01 11:58:00,
2013-01-01 06:03:00,3.2,-2.5,30.21,SW,230,4.0,6.7,76,0.00,,,0.00,CWS Microserver 1.4,2013-01-01 12:03:00,
2013-01-01 06:08:00,3.6,-2.6,30.21,North,349,1.6,6.7,74,0.00,,,0.00,CWS Microserver 1.4,2013-01-01 12:08:00,
2013-01-01 06:13:00,3.6,-2.4,30.21,WSW,245,2.7,5.6,75,0.00,,,0.00,CWS Microserver 1.4,2013-01-01 12:13:00,
2013-01-01 06:18:00,4.0,-2.0,30.21,WSW,247,2.6,5.6,75,0.00,,,0.00,CWS Microserver 1.4,2013-01-01 12:18:00,
2013-01-01 06:23:00,4.1,-1.9,30.21,NW,317,0.9,5.0,75,0.00,,,0.00,CWS Microserver 1.4,2013-01-01 12:23:00,
2013-01-01 06:28:00,4.3,-2.1,30.21,WSW,238,2.1,5.2,74,0.00,,,0.00,CWS Microserver 1.4,2013-01-01 12:28:00,
2013-01-01 06:38:00,4.7,-2.0,30.21,WNW,285,0.4,4.2,73,0.00,,,0.00,CWS Microserver 1.4,2013-01-01 12:38:00,
2013-01-01 06:43:00,4.9,-1.9,30.21,SW,225,2.6,4.2,72,0.00,,,0.00,CWS Microserver 1.4,2013-01-01 12:43:00,
2013-01-01 06:48:00,5.0,-1.7,30.21,SW,231,3.9,4.4,73,0.00,,,0.00,CWS Microserver 1.4,2013-01-01 12:48:00,
2013-01-01 06:53:00,5.0,-1.8,30.21,SW,234,1.2,5.5,72,0.00,,,0.00,CWS Microserver 1.4,2013-01-01 12:53:00,
2013-01-01 07:03:00,5.4,-1.2,30.21,WSW,245,4.4,6.0,73,0.00,,,0.00,CWS Microserver 1.4,2013-01-01 13:03:00,
2013-01-01 07:08:00,5.4,-1.3,30.21,SSW,213,4.9,6.6,73,0.00,,,0.00,CWS Microserver 1.4,2013-01-01 13:08:00,
2013-01-01 07:13:00,5.8,-1.1,30.20,SW,235,4.6,6.6,72,0.00,,,0.00,CWS Microserver 1.4,2013-01-01 13:13:00,
2013-01-01 07:18:00,5.9,-1.1,30.20,SW,229,5.4,6.4,72,0.00,,,0.00,CWS Microserver 1.4,2013-01-01 13:18:00,
2013-01-01 07:23:00,5.9,-1.0,30.20,SW,230,3.9,6.4,72,0.00,,,0.00,CWS Microserver 1.4,2013-01-01 13:23:00,
2013-01-01 07:28:00,6.3,-0.3,30.20,SW,220,3.6,5.5,73,0.00,,,0.00,CWS Microserver 1.4,2013-01-01 13:28:00,
2013-01-01 07:33:00,6.5,-0.1,30.20,SSW,210,4.4,7.0,73,0.00,,,0.00,CWS Microserver 1.4,2013-01-01 13:33:00,
2013-01-01 07:38:00,6.7,0.0,30.20,WSW,246,5.1,7.7,73,0.00,,,0.00,CWS Microserver 1.4,2013-01-01 13:38:00,
2013-01-01 07:43:00,6.8,0.1,30.20,SW,224,5.7,7.7,73,0.00,,,0.00,CWS Microserver 1.4,2013-01-01 13:43:00,
2013-01-01 07:48:00,7.0,0.4,30.19,WSW,241,4.2,8.2,73,0.00,,,0.00,CWS Microserver 1.4,2013-01-01 13:48:00,
2013-01-01 07:53:00,7.2,0.5,30.20,SSW,212,3.6,8.2,73,0.00,,,0.00,CWS Microserver 1.4,2013-01-01 13:53:00,
2013-01-01 07:58:00,7.4,0.2,30.20,West,259,3.0,7.3,71,0.00,,,0.00,CWS Microserver 1.4,2013-01-01 13:58:00,
2013-01-01 08:03:00,7.6,0.4,30.20,SW,223,7.5,8.4,71,0.00,,,0.00,CWS Microserver 1.4,2013-01-01 14:03:00,
2013-01-01 08:08:00,7.6,0.3,30.20,SW,232,8.4,10.8,71,0.00,,,0.00,CWS Microserver 1.4,2013-01-01 14:08:00,
2013-01-01 08:13:00,7.6,0.5,30.20,SW,226,7.6,10.8,72,0.00,,,0.00,CWS Microserver 1.4,2013-01-01 14:13:00,
2013-01-01 08:18:00,7.7,0.7,30.20,SW,235,5.6,10.2,72,0.00,,,0.00,CWS Microserver 1.4,2013-01-01 14:18:00,
2013-01-01 08:23:00,7.7,0.7,30.20,WSW,239,5.8,8.5,72,0.00,,,0.00,CWS Microserver 1.4,2013-01-01 14:23:00,
2013-01-01 08:28:00,8.1,0.7,30.20,SW,228,7.9,9.2,71,0.00,,,0.00,CWS Microserver 1.4,2013-01-01 14:28:00,
2013-01-01 08:33:00,7.9,0.4,30.20,SW,229,8.5,9.7,70,0.00,,,0.00,CWS Microserver 1.4,2013-01-01 14:33:00,
2013-01-01 08:38:00,8.1,1.0,30.20,SW,228,5.7,9.7,72,0.00,,,0.00,CWS Microserver 1.4,2013-01-01 14:38:00,
2013-01-01 08:43:00,8.3,1.1,30.20,SW,228,9.4,9.7,71,0.00,,,0.00,CWS Microserver 1.4,2013-01-01 14:43:00,
2013-01-01 08:48:00,8.3,0.9,30.20,SW,226,8.3,9.9,71,0.00,,,0.00,CWS Microserver 1.4,2013-01-01 14:48:00,
2013-01-01 08:53:00,8.5,1.3,30.19,SW,228,4.6,9.9,72,0.00,,,0.00,CWS Microserver 1.4,2013-01-01 14:53:00,
2013-01-01 08:58:00,8.6,1.5,30.20,WSW,241,7.2,8.7,72,0.00,,,0.00,CWS Microserver 1.4,2013-01-01 14:58:00,
2013-01-01 09:03:00,8.8,1.9,30.20,SW,222,5.8,9.3,72,0.00,,,0.00,CWS Microserver 1.4,2013-01-01 15:03:00,
2013-01-01 09:08:00,9.0,2.2,30.20,SW,224,5.9,9.3,73,0.00,,,0.00,CWS Microserver 1.4,2013-01-01 15:08:00,
2013-01-01 09:13:00,9.2,2.5,30.20,SSW,213,8.2,9.3,73,0.00,,,0.00,CWS Microserver 1.4,2013-01-01 15:13:00,
2013-01-01 09:18:00,9.4,2.4,30.20,SW,228,6.2,9.9,72,0.00,,,0.00,CWS Microserver 1.4,2013-01-01 15:18:00,
2013-01-01 09:23:00,9.4,2.7,30.20,SW,230,8.6,9.9,73,0.00,,,0.00,CWS Microserver 1.4,2013-01-01 15:23:00,
2013-01-01 09:28:00,9.5,2.7,30.20,SW,214,4.4,8.9,73,0.00,,,0.00,CWS Microserver 1.4,2013-01-01 15:28:00,
2013-01-01 09:33:00,9.7,3.0,30.20,SSW,207,3.9,8.9,73,0.00,,,0.00,CWS Microserver 1.4,2013-01-01 15:33:00,
2013-01-01 09:38:00,10.1,3.6,30.20,SW,224,4.0,8.7,74,0.00,,,0.00,CWS Microserver 1.4,2013-01-01 15:38:00,
2013-01-01 09:43:00,10.1,3.3,30.19,SSW,207,4.6,8.3,73,0.00,,,0.00,CWS Microserver 1.4,2013-01-01 15:43:00,
2013-01-01 09:48:00,10.3,3.7,30.19,SW,233,2.2,8.3,74,0.00,,,0.00,CWS Microserver 1.4,2013-01-01 15:48:00,
2013-01-01 09:53:00,10.6,4.0,30.19,SW,218,1.6,9.1,74,0.00,,,0.00,CWS Microserver 1.4,2013-01-01 15:53:00,
2013-01-01 09:58:00,11.0,4.6,30.19,SSW,193,2.2,9.1,74,0.00,,,0.00,CWS Microserver 1.4,2013-01-01 15:58:00,
2013-01-01 10:03:00,11.3,4.9,30.19,SSW,201,1.4,7.4,74,0.00,,,0.00,CWS Microserver 1.4,2013-01-01 16:03:00,
2013-01-01 10:08:00,11.5,5.0,30.19,WSW,246,4.8,8.5,74,0.00,,,0.00,CWS Microserver 1.4,2013-01-01 16:08:00,
2013-01-01 10:13:00,11.7,5.3,30.19,SW,218,5.7,8.5,75,0.00,,,0.00,CWS Microserver 1.4,2013-01-01 16:13:00,
2013-01-01 10:18:00,11.9,5.5,30.19,SW,236,5.1,9.5,74,0.00,,,0.00,CWS Microserver 1.4,2013-01-01 16:18:00,
2013-01-01 10:23:00,12.1,5.6,30.19,WSW,248,3.4,9.5,74,0.00,,,0.00,CWS Microserver 1.4,2013-01-01 16:23:00,
2013-01-01 10:28:00,12.2,5.9,30.19,SW,228,1.3,8.4,75,0.00,,,0.00,CWS Microserver 1.4,2013-01-01 16:28:00,
2013-01-01 10:33:00,12.6,6.1,30.18,SW,225,7.9,7.9,74,0.00,,,0.00,CWS Microserver 1.4,2013-01-01 16:33:00,
2013-01-01 10:38:00,12.8,6.0,30.18,SW,217,8.7,10.3,73,0.00,,,0.00,CWS Microserver 1.4,2013-01-01 16:38:00,
2013-01-01 10:43:00,12.8,6.2,30.18,SW,214,6.2,10.7,74,0.00,,,0.00,CWS Microserver 1.4,2013-01-01 16:43:00,
2013-01-01 10:48:00,13.0,6.6,30.18,WSW,244,6.0,10.7,75,0.00,,,0.00,CWS Microserver 1.4,2013-01-01 16:48:00,
2013-01-01 10:53:00,13.1,6.8,30.18,SW,235,6.1,10.7,75,0.00,,,0.00,CWS Microserver 1.4,2013-01-01 16:53:00,
2013-01-01 10:58:00,13.5,7.3,30.18,SW,230,7.9,10.7,75,0.00,,,0.00,CWS Microserver 1.4,2013-01-01 16:58:00,
2013-01-01 11:03:00,13.5,7.0,30.18,SW,218,4.8,11.5,74,0.00,,,0.00,CWS Microserver 1.4,2013-01-01 17:03:00,
2013-01-01 11:08:00,13.7,7.3,30.18,SW,221,12.3,12.3,75,0.00,,,0.00,CWS Microserver 1.4,2013-01-01 17:08:00,
2013-01-01 11:13:00,13.7,7.6,30.18,SSW,198,8.1,12.3,76,0.00,,,0.00,CWS Microserver 1.4,2013-01-01 17:13:00,
2013-01-01 11:18:00,13.9,7.6,30.18,SSE,162,1.9,12.3,75,0.00,,,0.00,CWS Microserver 1.4,2013-01-01 17:18:00,
2013-01-01 11:23:00,13.9,7.7,30.18,SW,230,6.8,16.3,75,0.00,,,0.00,CWS Microserver 1.4,2013-01-01 17:23:00,
2013-01-01 11:28:00,14.0,7.7,30.18,SSW,201,10.8,16.3,75,0.00,,,0.00,CWS Microserver 1.4,2013-01-01 17:28:00,
2013-01-01 11:33:00,14.0,8.0,30.18,SW,217,6.6,14.4,76,0.00,,,0.00,CWS Microserver 1.4,2013-01-01 17:33:00,
2013-01-01 11:38:00,14.4,8.3,30.18,SW,235,9.1,14.4,76,0.00,,,0.00,CWS Microserver 1.4,2013-01-01 17:38:00,
2013-01-01 11:43:00,14.4,8.1,30.17,SW,223,10.5,11.0,75,0.00,,,0.00,CWS Microserver 1.4,2013-01-01 17:43:00,
2013-01-01 11:53:00,14.8,8.7,30.17,SW,222,7.6,10.9,76,0.00,,,0.00,CWS Microserver 1.4,2013-01-01 17:53:00,
2013-01-01 11:58:00,14.9,8.9,30.17,SW,220,8.6,11.3,76,0.00,,,0.00,CWS Microserver 1.4,2013-01-01 17:58:00,
2013-01-01 12:03:00,14.9,9.0,30.17,WSW,255,3.7,11.3,76,0.00,,,0.00,CWS Microserver 1.4,2013-01-01 18:03:00,
2013-01-01 12:13:00,15.7,9.9,30.16,WSW,240,7.0,11.6,77,0.00,,,0.00,CWS Microserver 1.4,2013-01-01 18:13:00,
2013-01-01 12:18:00,15.8,10.2,30.16,SW,219,6.5,10.5,78,0.00,,,0.00,CWS Microserver 1.4,2013-01-01 18:18:00,
2013-01-01 12:28:00,16.4,10.9,30.16,SW,223,8.5,9.6,78,0.00,,,0.00,CWS Microserver 1.4,2013-01-01 18:28:00,
2013-01-01 12:33:00,16.7,11.5,30.16,SW,230,4.3,10.1,79,0.00,,,0.00,CWS Microserver 1.4,2013-01-01 18:33:00,
2013-01-01 12:38:00,17.3,12.0,30.16,SW,225,4.2,10.2,79,0.00,,,0.00,CWS Microserver 1.4,2013-01-01 18:38:00,
2013-01-01 12:43:00,17.6,12.4,30.16,SW,232,9.5,11.7,79,0.00,,,0.00,CWS Microserver 1.4,2013-01-01 18:43:00,
2013-01-01 12:48:00,17.8,12.6,30.16,WSW,249,4.8,11.7,79,0.00,,,0.00,CWS Microserver 1.4,2013-01-01 18:48:00,
2013-01-01 12:53:00,17.6,12.4,30.15,SW,220,6.5,12.1,79,0.00,,,0.00,CWS Microserver 1.4,2013-01-01 18:53:00,
2013-01-01 12:58:00,17.8,12.7,30.15,SW,218,11.0,15.0,80,0.00,,,0.00,CWS Microserver 1.4,2013-01-01 18:58:00,
2013-01-01 13:03:00,18.2,13.3,30.15,WSW,246,5.2,15.0,80,0.00,,,0.00,CWS Microserver 1.4,2013-01-01 19:03:00,
2013-01-01 13:08:00,18.4,13.3,30.14,WSW,243,13.7,16.7,80,0.00,,,0.00,CWS Microserver 1.4,2013-01-01 19:08:00,
2013-01-01 13:13:00,18.5,13.4,30.14,SW,232,7.9,18.2,80,0.00,,,0.00,CWS Microserver 1.4,2013-01-01 19:13:00,
2013-01-01 13:18:00,18.7,13.8,30.13,SW,230,15.9,21.4,80,0.00,,,0.00,CWS Microserver 1.4,2013-01-01 19:18:00,
2013-01-01 13:23:00,18.7,13.7,30.14,SW,234,7.2,21.4,80,0.00,,,0.00,CWS Microserver 1.4,2013-01-01 19:23:00,
2013-01-01 13:28:00,18.7,13.7,30.13,SW,236,13.3,21.7,80,0.00,,,0.00,CWS Microserver 1.4,2013-01-01 19:28:00,
2013-01-01 13:33:00,19.1,13.8,30.13,WSW,251,14.7,21.7,79,0.00,,,0.00,CWS Microserver 1.4,2013-01-01 19:33:00,
2013-01-01 13:38:00,19.1,13.8,30.14,WSW,237,17.5,19.8,79,0.00,,,0.00,CWS Microserver 1.4,2013-01-01 19:38:00,
2013-01-01 13:43:00,19.1,13.7,30.13,WSW,237,10.3,20.3,79,0.00,,,0.00,CWS Microserver 1.4,2013-01-01 19:43:00,
2013-01-01 13:48:00,19.3,14.0,30.13,WSW,240,8.5,20.3,79,0.00,,,0.00,CWS Microserver 1.4,2013-01-01 19:48:00,
2013-01-01 13:53:00,19.3,13.9,30.13,SW,224,8.7,18.9,79,0.00,,,0.00,CWS Microserver 1.4,2013-01-01 19:53:00,
2013-01-01 13:58:00,19.3,13.9,30.13,SW,233,10.7,18.9,79,0.00,,,0.00,CWS Microserver 1.4,2013-01-01 19:58:00,
2013-01-01 14:03:00,19.4,13.9,30.13,SW,217,13.1,18.0,78,0.00,,,0.00,CWS Microserver 1.4,2013-01-01 20:03:00,
2013-01-01 14:08:00,19.4,13.9,30.13,SW,215,7.3,18.1,78,0.00,,,0.00,CWS Microserver 1.4,2013-01-01 20:08:00,
2013-01-01 14:13:00,19.4,13.9,30.13,WSW,247,8.8,19.3,78,0.00,,,0.00,CWS Microserver 1.4,2013-01-01 20:13:00,
2013-01-01 14:18:00,19.3,13.8,30.13,SW,232,13.7,19.3,78,0.00,,,0.00,CWS Microserver 1.4,2013-01-01 20:18:00,
2013-01-01 14:23:00,19.1,13.5,30.13,SW,220,15.3,19.4,78,0.00,,,0.00,CWS Microserver 1.4,2013-01-01 20:23:00,
2013-01-01 14:28:00,19.1,13.6,30.13,SW,228,10.6,19.4,78,0.00,,,0.00,CWS Microserver 1.4,2013-01-01 20:28:00,
2013-01-01 14:33:00,19.1,13.8,30.13,SW,223,8.2,18.0,79,0.00,,,0.00,CWS Microserver 1.4,2013-01-01 20:33:00,
2013-01-01 14:38:00,19.3,13.9,30.13,SW,233,4.7,16.3,79,0.00,,,0.00,CWS Microserver 1.4,2013-01-01 20:38:00,
2013-01-01 14:43:00,19.3,13.6,30.12,SW,217,8.0,16.3,78,0.00,,,0.00,CWS Microserver 1.4,2013-01-01 20:43:00,
2013-01-01 14:48:00,19.3,13.7,30.12,SW,232,9.4,14.8,78,0.00,,,0.00,CWS Microserver 1.4,2013-01-01 20:48:00,
2013-01-01 14:53:00,19.1,13.6,30.13,SW,231,6.1,15.3,78,0.00,,,0.00,CWS Microserver 1.4,2013-01-01 20:53:00,
2013-01-01 14:58:00,19.1,13.5,30.13,WSW,256,10.8,15.3,78,0.00,,,0.00,CWS Microserver 1.4,2013-01-01 20:58:00,
2013-01-01 15:03:00,19.1,13.5,30.12,WSW,255,9.8,13.8,78,0.00,,,0.00,CWS Microserver 1.4,2013-01-01 21:03:00,
2013-01-01 15:08:00,19.1,13.5,30.13,WSW,241,11.8,15.3,78,0.00,,,0.00,CWS Microserver 1.4,2013-01-01 21:08:00,
2013-01-01 15:13:00,19.1,13.6,30.12,SW,235,9.0,15.3,78,0.00,,,0.00,CWS Microserver 1.4,2013-01-01 21:13:00,
2013-01-01 15:18:00,18.9,13.3,30.12,SW,229,10.2,15.7,78,0.00,,,0.00,CWS Microserver 1.4,2013-01-01 21:18:00,
2013-01-01 15:23:00,18.9,13.6,30.12,SW,224,11.0,15.7,79,0.00,,,0.00,CWS Microserver 1.4,2013-01-01 21:23:00,
2013-01-01 15:28:00,18.7,13.2,30.12,WSW,248,7.9,15.2,78,0.00,,,0.00,CWS Microserver 1.4,2013-01-01 21:28:00,
2013-01-01 15:33:00,18.5,13.2,30.12,SW,227,12.1,15.1,79,0.00,,,0.00,CWS Microserver 1.4,2013-01-01 21:33:00,
2013-01-01 15:38:00,18.4,13.3,30.12,SW,223,9.3,15.4,80,0.00,,,0.00,CWS Microserver 1.4,2013-01-01 21:38:00,
2013-01-01 15:43:00,18.4,13.3,30.12,SW,236,6.1,15.4,80,0.00,,,0.00,CWS Microserver 1.4,2013-01-01 21:43:00,
2013-01-01 15:48:00,18.4,13.4,30.12,WSW,238,8.8,13.9,80,0.00,,,0.00,CWS Microserver 1.4,2013-01-01 21:48:00,
2013-01-01 15:53:00,18.4,13.5,30.11,SW,222,5.8,12.5,80,0.00,,,0.00,CWS Microserver 1.4,2013-01-01 21:53:00,
2013-01-01 15:58:00,18.4,13.6,30.11,SW,226,7.7,12.5,81,0.00,,,0.00,CWS Microserver 1.4,2013-01-01 21:58:00,
2013-01-01 16:03:00,18.5,13.9,30.11,SW,229,6.0,11.0,82,0.00,,,0.00,CWS Microserver 1.4,2013-01-01 22:03:00,
2013-01-01 16:08:00,18.2,13.5,30.11,SW,218,12.8,15.3,81,0.00,,,0.00,CWS Microserver 1.4,2013-01-01 22:08:00,
2013-01-01 16:13:00,18.2,13.6,30.11,SSW,208,6.3,15.3,81,0.00,,,0.00,CWS Microserver 1.4,2013-01-01 22:13:00,
2013-01-01 16:18:00,18.2,13.6,30.11,WSW,239,6.2,14.3,82,0.00,,,0.00,CWS Microserver 1.4,2013-01-01 22:18:00,
2013-01-01 16:23:00,18.2,13.7,30.11,SW,218,10.1,11.9,82,0.00,,,0.00,CWS Microserver 1.4,2013-01-01 22:23:00,
2013-01-01 16:28:00,18.2,13.7,30.11,SW,228,5.9,12.0,82,0.00,,,0.00,CWS Microserver 1.4,2013-01-01 22:28:00,
2013-01-01 16:33:00,18.2,13.8,30.11,SW,224,6.2,12.0,82,0.00,,,0.00,CWS Microserver 1.4,2013-01-01 22:33:00,
2013-01-01 16:38:00,18.0,13.5,30.11,SW,222,9.7,12.3,82,0.00,,,0.00,CWS Microserver 1.4,2013-01-01 22:38:00,
2013-01-01 16:43:00,18.0,13.5,30.11,SW,225,10.1,12.8,82,0.00,,,0.00,CWS Microserver 1.4,2013-01-01 22:43:00,
2013-01-01 16:48:00,18.2,13.8,30.11,SW,227,6.8,12.8,82,0.00,,,0.00,CWS Microserver 1.4,2013-01-01 22:48:00,
2013-01-01 16:53:00,18.0,13.5,30.11,SW,219,13.3,13.3,82,0.00,,,0.00,CWS Microserver 1.4,2013-01-01 22:53:00,
2013-01-01 16:58:00,17.8,13.4,30.11,SSW,205,6.9,14.4,82,0.00,,,0.00,CWS Microserver 1.4,2013-01-01 22:58:00,
2013-01-01 17:03:00,17.8,13.4,30.10,SW,233,11.8,14.4,82,0.00,,,0.00,CWS Microserver 1.4,2013-01-01 23:03:00,
2013-01-01 17:08:00,17.6,13.4,30.10,SW,231,11.5,14.3,83,0.00,,,0.00,CWS Microserver 1.4,2013-01-01 23:08:00,
2013-01-01 17:13:00,17.6,13.4,30.10,SW,229,11.4,14.8,83,0.00,,,0.00,CWS Microserver 1.4,2013-01-01 23:13:00,
2013-01-01 17:18:00,17.6,13.4,30.10,SSW,206,4.5,14.8,83,0.00,,,0.00,CWS Microserver 1.4,2013-01-01 23:18:00,
2013-01-01 17:23:00,17.6,13.3,30.10,SW,231,8.3,15.7,82,0.00,,,0.00,CWS Microserver 1.4,2013-01-01 23:23:00,
2013-01-01 17:28:00,17.6,13.4,30.10,SW,236,10.6,15.7,83,0.00,,,0.00,CWS Microserver 1.4,2013-01-01 23:28:00,
2013-01-01 17:33:00,17.6,13.5,30.10,SSW,212,7.8,15.3,83,0.00,,,0.00,CWS Microserver 1.4,2013-01-01 23:33:00,
2013-01-01 17:38:00,17.6,13.4,30.10,SW,222,10.7,13.8,83,0.00,,,0.00,CWS Microserver 1.4,2013-01-01 23:38:00,
2013-01-01 17:43:00,17.6,13.4,30.09,SW,215,7.0,13.8,83,0.00,,,0.00,CWS Microserver 1.4,2013-01-01 23:43:00,
2013-01-01 17:48:00,17.8,13.5,30.09,SSW,212,7.9,14.2,82,0.00,,,0.00,CWS Microserver 1.4,2013-01-01 23:48:00,
2013-01-01 17:53:00,17.8,13.5,30.09,SW,232,9.8,14.2,83,0.00,,,0.00,CWS Microserver 1.4,2013-01-01 23:53:00,
2013-01-01 17:58:00,18.0,13.6,30.08,SSW,213,5.5,14.7,82,0.00,,,0.00,CWS Microserver 1.4,2013-01-01 23:58:00,
2013-01-01 18:03:00,18.0,13.7,30.08,SW,234,8.0,14.7,82,0.00,,,0.00,CWS Microserver 1.4,2013-01-02 00:03:00,
2013-01-01 18:08:00,18.2,13.7,30.08,SW,221,12.1,15.4,82,0.00,,,0.00,CWS Microserver 1.4,2013-01-02 00:08:00,
2013-01-01 18:13:00,18.4,13.7,30.08,SW,218,9.8,15.4,81,0.00,,,0.00,CWS Microserver 1.4,2013-01-02 00:13:00,
2013-01-01 18:18:00,18.5,13.7,30.08,SW,220,12.5,15.1,81,0.00,,,0.00,CWS Microserver 1.4,2013-01-02 00:18:00,
2013-01-01 18:23:00,18.5,13.6,30.08,WSW,243,9.9,17.9,81,0.00,,,0.00,CWS Microserver 1.4,2013-01-02 00:23:00,
2013-01-01 18:28:00,18.5,13.7,30.08,SW,229,14.2,18.1,81,0.00,,,0.00,CWS Microserver 1.4,2013-01-02 00:28:00,
2013-01-01 18:33:00,18.5,13.4,30.07,SW,221,13.5,18.1,80,0.00,,,0.00,CWS Microserver 1.4,2013-01-02 00:33:00,
2013-01-01 18:38:00,18.7,13.5,30.07,SW,227,11.2,17.9,79,0.00,,,0.00,CWS Microserver 1.4,2013-01-02 00:38:00,
2013-01-01 18:43:00,18.7,13.6,30.07,WSW,250,10.6,17.9,80,0.00,,,0.00,CWS Microserver 1.4,2013-01-02 00:43:00,
2013-01-01 18:48:00,18.7,13.5,30.07,SW,226,11.4,17.8,79,0.00,,,0.00,CWS Microserver 1.4,2013-01-02 00:48:00,
2013-01-01 18:53:00,18.5,13.2,30.07,SW,217,11.7,21.5,79,0.00,,,0.00,CWS Microserver 1.4,2013-01-02 00:53:00,
2013-01-01 18:58:00,18.4,13.2,30.07,SW,219,18.4,21.6,79,0.00,,,0.00,CWS Microserver 1.4,2013-01-02 00:58:00,
2013-01-01 19:03:00,18.2,13.2,30.07,SW,229,6.8,21.6,80,0.00,,,0.00,CWS Microserver 1.4,2013-01-02 01:03:00,
2013-01-01 19:13:00,17.8,12.7,30.07,SW,235,9.3,23.1,79,0.00,,,0.00,CWS Microserver 1.4,2013-01-02 01:13:00,
2013-01-01 19:18:00,17.6,12.6,30.06,SW,224,13.5,15.8,80,0.00,,,0.00,CWS Microserver 1.4,2013-01-02 01:18:00,
2013-01-01 19:23:00,17.5,12.5,30.06,WSW,245,10.6,17.6,80,0.00,,,0.00,CWS Microserver 1.4,2013-01-02 01:23:00,
2013-01-01 19:28:00,17.1,12.2,30.06,SW,233,12.0,17.6,80,0.00,,,0.00,CWS Microserver 1.4,2013-01-02 01:28:00,
2013-01-01 19:33:00,16.9,12.2,30.06,SSW,211,6.3,16.0,81,0.00,,,0.00,CWS Microserver 1.4,2013-01-02 01:33:00,
2013-01-01 19:38:00,16.7,12.1,30.06,SW,229,10.6,15.3,81,0.00,,,0.00,CWS Microserver 1.4,2013-01-02 01:38:00,
2013-01-01 19:43:00,16.4,11.8,30.06,SW,231,11.3,15.3,81,0.00,,,0.00,CWS Microserver 1.4,2013-01-02 01:43:00,
2013-01-01 19:48:00,16.2,11.8,30.06,SW,230,13.4,16.4,82,0.00,,,0.00,CWS Microserver 1.4,2013-01-02 01:48:00,
2013-01-01 19:53:00,16.0,11.6,30.06,SSW,212,11.9,16.4,82,0.00,,,0.00,CWS Microserver 1.4,2013-01-02 01:53:00,
2013-01-01 19:58:00,16.0,11.7,30.06,SW,225,10.4,16.1,82,0.00,,,0.00,CWS Microserver 1.4,2013-01-02 01:58:00,
2013-01-01 20:03:00,16.0,11.7,30.06,SW,233,11.9,16.0,82,0.00,,,0.00,CWS Microserver 1.4,2013-01-02 02:03:00,
2013-01-01 20:08:00,16.0,11.8,30.06,SW,225,9.3,16.0,83,0.00,,,0.00,CWS Microserver 1.4,2013-01-02 02:08:00,
2013-01-01 20:13:00,15.8,11.6,30.06,WSW,250,10.4,13.9,83,0.00,,,0.00,CWS Microserver 1.4,2013-01-02 02:13:00,
2013-01-01 20:18:00,15.8,11.7,30.06,WSW,244,7.1,13.9,83,0.00,,,0.00,CWS Microserver 1.4,2013-01-02 02:18:00,
2013-01-01 20:23:00,15.8,11.8,30.05,SW,229,7.7,13.9,83,0.00,,,0.00,CWS Microserver 1.4,2013-01-02 02:23:00,
2013-01-01 20:28:00,15.7,11.7,30.05,SW,228,10.6,14.6,83,0.00,,,0.00,CWS Microserver 1.4,2013-01-02 02:28:00,
2013-01-01 20:33:00,15.7,11.7,30.05,SW,235,9.6,17.0,84,0.00,,,0.00,CWS Microserver 1.4,2013-01-02 02:33:00,
2013-01-01 20:38:00,15.5,11.7,30.05,SW,226,13.9,17.9,84,0.00,,,0.00,CWS Microserver 1.4,2013-01-02 02:38:00,
2013-01-01 20:43:00,15.3,11.6,30.05,SW,228,14.5,17.9,85,0.00,,,0.00,CWS Microserver 1.4,2013-01-02 02:43:00,
2013-01-01 20:48:00,15.3,11.8,30.05,SW,227,15.1,16.6,85,0.00,,,0.00,CWS Microserver 1.4,2013-01-02 02:48:00,
2013-01-01 20:53:00,15.1,11.7,30.04,SW,230,9.5,17.4,86,0.00,,,0.00,CWS Microserver 1.4,2013-01-02 02:53:00,
2013-01-01 20:58:00,15.1,11.9,30.04,SW,218,9.5,17.4,86,0.00,,,0.00,CWS Microserver 1.4,2013-01-02 02:58:00,
2013-01-01 21:03:00,15.1,12.0,30.04,WSW,242,10.7,16.4,87,0.00,,,0.00,CWS Microserver 1.4,2013-01-02 03:03:00,
2013-01-01 21:08:00,15.1,12.1,30.04,SW,225,8.4,14.0,87,0.00,,,0.00,CWS Microserver 1.4,2013-01-02 03:08:00,
2013-01-01 21:13:00,15.1,12.1,30.04,SW,225,10.3,14.1,87,0.00,,,0.00,CWS Microserver 1.4,2013-01-02 03:13:00,
2013-01-01 21:18:00,15.1,12.1,30.04,SW,228,7.8,14.1,87,0.00,,,0.00,CWS Microserver 1.4,2013-01-02 03:18:00,
2013-01-01 21:23:00,15.1,12.2,30.03,WSW,237,7.1,16.6,88,0.00,,,0.00,CWS Microserver 1.4,2013-01-02 03:23:00,
2013-01-01 21:28:00,15.1,12.3,30.04,SW,231,8.4,17.1,88,0.00,,,0.00,CWS Microserver 1.4,2013-01-02 03:28:00,
2013-01-01 21:33:00,15.1,12.3,30.03,SW,235,9.6,17.1,88,0.00,,,0.00,CWS Microserver 1.4,2013-01-02 03:33:00,
2013-01-01 21:38:00,15.3,12.6,30.03,SW,215,12.9,14.2,88,0.00,,,0.00,CWS Microserver 1.4,2013-01-02 03:38:00,
2013-01-01 21:43:00,15.3,12.6,30.03,WSW,239,9.6,14.8,88,0.00,,,0.00,CWS Microserver 1.4,2013-01-02 03:43:00,
2013-01-01 21:48:00,15.3,12.6,30.03,SW,216,11.1,14.8,89,0.00,,,0.00,CWS Microserver 1.4,2013-01-02 03:48:00,
2013-01-01 21:53:00,15.3,12.7,30.03,SW,224,4.8,14.2,89,0.00,,,0.00,CWS Microserver 1.4,2013-01-02 03:53:00,
2013-01-01 21:58:00,15.5,12.9,30.03,WSW,251,10.9,14.2,89,0.00,,,0.00,CWS Microserver 1.4,2013-01-02 03:58:00,
2013-01-01 22:03:00,15.5,12.9,30.03,WSW,252,7.7,12.9,89,0.00,,,0.00,CWS Microserver 1.4,2013-01-02 04:03:00,
2013-01-01 22:08:00,15.5,12.9,30.02,SW,227,9.5,13.1,89,0.00,,,0.00,CWS Microserver 1.4,2013-01-02 04:08:00,
2013-01-01 22:13:00,15.5,12.9,30.02,WSW,251,6.7,13.1,89,0.00,,,0.00,CWS Microserver 1.4,2013-01-02 04:13:00,
2013-01-01 22:18:00,15.7,13.1,30.02,WSW,251,8.7,12.0,89,0.00,,,0.00,CWS Microserver 1.4,2013-01-02 04:18:00,
2013-01-01 22:23:00,15.7,13.1,30.02,SW,235,10.3,10.6,89,0.00,,,0.00,CWS Microserver 1.4,2013-01-02 04:23:00,
2013-01-01 22:28:00,15.8,13.2,30.02,SW,223,4.5,13.4,89,0.00,,,0.00,CWS Microserver 1.4,2013-01-02 04:28:00,
2013-01-01 22:33:00,16.0,13.5,30.02,SW,235,8.2,13.4,89,0.00,,,0.00,CWS Microserver 1.4,2013-01-02 04:33:00,
2013-01-01 22:38:00,16.2,13.7,30.02,WSW,245,10.1,13.0,89,0.00,,,0.00,CWS Microserver 1.4,2013-01-02 04:38:00,
2013-01-01 22:43:00,16.4,13.8,30.02,SW,224,5.6,13.0,89,0.00,,,0.00,CWS Microserver 1.4,2013-01-02 04:43:00,
2013-01-01 22:48:00,16.4,13.8,30.02,SW,231,6.2,14.0,89,0.00,,,0.00,CWS Microserver 1.4,2013-01-02 04:48:00,
2013-01-01 22:53:00,16.6,14.0,30.01,SW,236,9.5,14.0,89,0.00,,,0.00,CWS Microserver 1.4,2013-01-02 04:53:00,
2013-01-01 22:58:00,16.6,14.0,30.01,SW,221,6.2,11.7,89,0.00,,,0.00,CWS Microserver 1.4,2013-01-02 04:58:00,
2013-01-01 23:03:00,16.7,14.1,30.01,SW,232,4.4,11.7,89,0.00,,,0.00,CWS Microserver 1.4,2013-01-02 05:03:00,
2013-01-01 23:08:00,16.9,14.3,30.01,SW,214,8.5,10.7,89,0.00,,,0.00,CWS Microserver 1.4,2013-01-02 05:08:00,
2013-01-01 23:13:00,16.9,14.3,30.01,SW,236,6.3,11.1,89,0.00,,,0.00,CWS Microserver 1.4,2013-01-02 05:13:00,
2013-01-01 23:18:00,17.1,14.5,30.01,SW,223,5.2,12.7,89,0.00,,,0.00,CWS Microserver 1.4,2013-01-02 05:18:00,
2013-01-01 23:23:00,17.1,14.4,30.01,WSW,244,3.9,12.7,89,0.00,,,0.00,CWS Microserver 1.4,2013-01-02 05:23:00,
2013-01-01 23:28:00,17.1,14.5,30.00,WSW,249,5.5,9.6,89,0.00,,,0.00,CWS Microserver 1.4,2013-01-02 05:28:00,
2013-01-01 23:33:00,17.1,14.5,30.01,SW,233,5.8,12.1,89,0.00,,,0.00,CWS Microserver 1.4,2013-01-02 05:33:00,
2013-01-01 23:38:00,17.3,14.6,30.00,SW,229,9.1,12.1,89,0.00,,,0.00,CWS Microserver 1.4,2013-01-02 05:38:00,
2013-01-01 23:43:00,17.1,14.4,30.00,SW,226,7.2,15.0,89,0.00,,,0.00,CWS Microserver 1.4,2013-01-02 05:43:00,
2013-01-01 23:48:00,16.9,14.2,30.00,WSW,243,8.2,15.0,89,0.00,,,0.00,CWS Microserver 1.4,2013-01-02 05:48:00,
2013-01-01 23:53:00,17.1,14.4,30.00,SW,219,7.9,12.9,88,0.00,,,0.00,CWS Microserver 1.4,2013-01-02 05:53:00,
2013-01-01 23:58:00,16.9,14.1,30.00,SSW,213,6.9,14.0,88,0.00,,,0.00,CWS Microserver 1.4,2013-01-02 05:58:00,